Weather History for Washington, MO

Change the Weather History Date:

Monday, March 4, 2013

  Actual Average (KSTL) Record (KSTL)
Temperature  
Mean Temperature 44 °F 42 °F  
Max Temperature 53 °F 51 °F 79 °F (1974)
Min Temperature 35 °F 33 °F -1 °F (1978)
Degree Days  
Heating Degree Days 21 23  
Month to date heating degree days 95  
Since 1 July heating degree days 3693  
Cooling Degree Days 0 0  
Month to date cooling degree days 0  
Year to date cooling degree days 0  
Moisture  
Dew Point 31 °F    
Average Humidity 63    
Maximum Humidity 87    
Minimum Humidity 47    
Precipitation  
Precipitation 0.00 in 0.09 in 1.44 in (1963)
Month to date precipitation 0.34  
Year to date precipitation 4.98  
Snow  
Snow 0.00 in 0.10 in 10.00 in (2008)
Month to date snowfall 0.4  
Since 1 July snowfall 15.4  
Snow Depth -    
Sea Level Pressure  
Sea Level Pressure 29.83 in    
Wind  
Wind Speed 11 mph (SE)    
Max Wind Speed 16 mph    
Max Gust Speed 24 mph    
Visibility 10 miles    
Events      
T = Trace of Precipitation, MM = Missing Value Source: NWS Daily Summary

Daily Weather History Graph

Daily Weather History Graph

Search for Another Location

Airport:

Trip Planner

Search our weather history database for the weather conditions in past years. The results will help you decide how hot, cold, wet, or windy it might be!

Date:

Astronomy

Mar. 04, 2013 Rise Set
Actual Time 6:31 AM CST 6:00 PM CST
Civil Twilight 6:04 AM CST 6:26 PM CST
Nautical Twilight 5:34 AM CST 6:57 PM CST
Astronomical Twilight 5:03 AM CST 7:28 PM CST
Moon 12:38 AM CST (3/4) 10:45 AM CST (3/4)
Length of Visible Light 12h 22m
Length of Day
11h 28m
Waning Gibbous, 52% of the Moon is Illuminated
Mar 4
Waning Gibbous
Mar 4
Last Quarter
Mar 11
New
Mar 19
First Quarter
Mar 27
Full

Hourly Weather History & Observations

Time (CST) Temp. Windchill Dew Point Humidity Pressure Visibility Wind Dir Wind Speed Gust Speed Precip Events Conditions
12:15 AM 35.6 °F 28.6 °F 24.8 °F 65% 30.00 in 10.0 mi ESE 9.2 mph - N/A   Overcast
12:35 AM 35.6 °F 27.5 °F 24.8 °F 65% 29.99 in 10.0 mi ESE 11.5 mph - N/A   Overcast
12:55 AM 35.6 °F 27.1 °F 24.8 °F 65% 29.98 in 10.0 mi ESE 12.7 mph - N/A   Overcast
1:15 AM 35.6 °F 27.5 °F 24.8 °F 65% 29.97 in 10.0 mi ESE 11.5 mph - N/A   Overcast
1:35 AM 35.6 °F 27.5 °F 24.8 °F 65% 29.97 in 10.0 mi ESE 11.5 mph 17.3 mph N/A   Scattered Clouds
1:55 AM 35.6 °F 27.1 °F 26.6 °F 70% 29.96 in 10.0 mi ESE 12.7 mph - N/A   Partly Cloudy
2:15 AM 37.4 °F 29.3 °F 26.6 °F 65% 29.96 in 10.0 mi ESE 12.7 mph - N/A   Mostly Cloudy
2:35 AM 37.4 °F 29.8 °F 26.6 °F 65% 29.95 in 10.0 mi ESE 11.5 mph - N/A   Mostly Cloudy
2:55 AM 37.4 °F 28.9 °F 26.6 °F 65% 29.94 in 10.0 mi ESE 13.8 mph 19.6 mph N/A   Partly Cloudy
3:15 AM 37.4 °F 28.5 °F 26.6 °F 65% 29.92 in 10.0 mi ESE 15.0 mph - N/A   Clear
3:35 AM 37.4 °F 29.3 °F 26.6 °F 65% 29.92 in 10.0 mi SE 12.7 mph 18.4 mph N/A   Partly Cloudy
3:55 AM 37.4 °F 28.9 °F 26.6 °F 65% 29.91 in 10.0 mi SE 13.8 mph - N/A   Clear
4:15 AM 37.4 °F 28.9 °F 26.6 °F 65% 29.90 in 10.0 mi ESE 13.8 mph 20.7 mph N/A   Clear
4:35 AM 35.6 °F 27.5 °F 26.6 °F 70% 29.90 in 10.0 mi SE 11.5 mph - N/A   Clear
4:55 AM 35.6 °F 27.1 °F 26.6 °F 70% 29.91 in 10.0 mi SE 12.7 mph - N/A   Clear
5:15 AM 35.6 °F 27.1 °F 24.8 °F 65% 29.90 in 10.0 mi SE 12.7 mph 19.6 mph N/A   Clear
5:35 AM 35.6 °F 26.2 °F 24.8 °F 65% 29.89 in 10.0 mi SE 15.0 mph 19.6 mph N/A   Partly Cloudy
5:55 AM 35.6 °F 26.6 °F 24.8 °F 65% 29.89 in 10.0 mi SE 13.8 mph 17.3 mph N/A   Clear
6:15 AM 35.6 °F 27.1 °F 24.8 °F 65% 29.88 in 10.0 mi SE 12.7 mph 19.6 mph N/A   Clear
6:35 AM 35.6 °F 27.1 °F 24.8 °F 65% 29.88 in 10.0 mi SE 12.7 mph 18.4 mph N/A   Clear
6:55 AM 37.4 °F 28.9 °F 24.8 °F 60% 29.87 in 10.0 mi SE 13.8 mph 20.7 mph N/A   Clear
7:15 AM 37.4 °F 28.5 °F 24.8 °F 60% 29.87 in 10.0 mi SE 15.0 mph 19.6 mph N/A   Clear
7:35 AM 37.4 °F 28.2 °F 24.8 °F 60% 29.87 in 10.0 mi SE 16.1 mph 21.9 mph N/A   Clear
7:55 AM 37.4 °F 28.5 °F 24.8 °F 60% 29.87 in 10.0 mi SE 15.0 mph 24.2 mph N/A   Clear
8:15 AM 37.4 °F 28.9 °F 24.8 °F 60% 29.87 in 10.0 mi SE 13.8 mph - N/A   Clear
8:35 AM 37.4 °F 28.2 °F 24.8 °F 60% 29.86 in 10.0 mi SE 16.1 mph - N/A   Clear
8:55 AM 37.4 °F 28.5 °F 24.8 °F 60% 29.85 in 10.0 mi SE 15.0 mph 20.7 mph N/A   Clear
9:15 AM 39.2 °F 31.6 °F 24.8 °F 56% 29.84 in 10.0 mi SE 12.7 mph 18.4 mph N/A   Clear
9:35 AM 39.2 °F 31.2 °F 24.8 °F 56% 29.84 in 10.0 mi SE 13.8 mph 19.6 mph N/A   Clear
9:55 AM 41.0 °F 34.3 °F 26.6 °F 57% 29.83 in 10.0 mi SE 11.5 mph - N/A   Clear
10:15 AM 41.0 °F 33.9 °F 26.6 °F 57% 29.82 in 10.0 mi SE 12.7 mph 21.9 mph N/A   Clear
10:35 AM 42.8 °F 35.8 °F 26.6 °F 53% 29.81 in 10.0 mi SE 13.8 mph 20.7 mph N/A   Clear
10:55 AM 44.6 °F 37.8 °F 28.4 °F 53% 29.80 in 10.0 mi SE 15.0 mph 20.7 mph N/A   Clear
11:15 AM 46.4 °F 40.1 °F 28.4 °F 50% 29.79 in 10.0 mi SE 15.0 mph 20.7 mph N/A   Clear
11:55 AM 48.2 °F - 32.0 °F 54% 29.79 in 10.0 mi SSE 11.5 mph - N/A   Clear
12:15 PM 48.2 °F - 32.0 °F 54% 29.77 in 10.0 mi SSE 13.8 mph 17.3 mph N/A   Clear
12:55 PM 50.0 °F - 32.0 °F 50% 29.76 in 10.0 mi SSE 15.0 mph 20.7 mph N/A   Clear
1:15 PM 50.0 °F - 32.0 °F 50% 29.75 in 10.0 mi SSE 12.7 mph - N/A   Clear
1:35 PM 50.0 °F - 32.0 °F 50% 29.75 in 10.0 mi SE 11.5 mph - N/A   Clear
1:55 PM 50.0 °F - 32.0 °F 50% 29.73 in 10.0 mi ESE 9.2 mph - N/A   Clear
2:15 PM 50.0 °F - 32.0 °F 50% 29.72 in 10.0 mi ESE 10.4 mph 16.1 mph N/A   Clear
2:35 PM 51.8 °F - 32.0 °F 47% 29.73 in 10.0 mi SE 9.2 mph - N/A   Clear
2:55 PM 53.6 °F - 35.6 °F 51% 29.72 in 10.0 mi SE 11.5 mph - N/A   Clear
3:15 PM 53.6 °F - 35.6 °F 51% 29.72 in 10.0 mi SSE 11.5 mph - N/A   Clear
3:35 PM 53.6 °F - 35.6 °F 51% 29.72 in 10.0 mi SE 8.1 mph - N/A   Clear
3:55 PM 53.6 °F - 35.6 °F 51% 29.72 in 10.0 mi SE 8.1 mph - N/A   Clear
4:15 PM 53.6 °F - 37.4 °F 54% 29.73 in 10.0 mi SE 10.4 mph - N/A   Clear
4:35 PM 53.6 °F - 37.4 °F 54% 29.73 in 10.0 mi SE 12.7 mph - N/A   Clear
4:55 PM 53.6 °F - 37.4 °F 54% 29.74 in 10.0 mi SE 11.5 mph - N/A   Clear
5:15 PM 51.8 °F - 37.4 °F 58% 29.74 in 10.0 mi SE 9.2 mph - N/A   Clear
5:35 PM 50.0 °F - 37.4 °F 62% 29.75 in 10.0 mi ESE 9.2 mph - N/A   Clear
5:55 PM 50.0 °F - 37.4 °F 62% 29.76 in 10.0 mi ESE 10.4 mph - N/A   Clear
6:15 PM 50.0 °F - 37.4 °F 62% 29.76 in 10.0 mi ESE 9.2 mph - N/A   Clear
6:35 PM 48.2 °F - 37.4 °F 66% 29.77 in 10.0 mi ESE 9.2 mph - N/A   Clear
6:55 PM 48.2 °F - 37.4 °F 66% 29.78 in 10.0 mi ESE 8.1 mph - N/A   Clear
7:15 PM 48.2 °F - 37.4 °F 66% 29.78 in 10.0 mi East 6.9 mph - N/A   Clear
7:35 PM 48.2 °F - 37.4 °F 66% 29.78 in 10.0 mi East 8.1 mph - N/A   Clear
7:55 PM 46.4 °F 42.9 °F 37.4 °F 71% 29.78 in 10.0 mi East 6.9 mph - N/A   Clear
8:35 PM 46.4 °F 42.9 °F 37.4 °F 71% 29.79 in 10.0 mi East 6.9 mph - N/A   Partly Cloudy
8:55 PM 46.4 °F 42.9 °F 39.2 °F 76% 29.79 in 10.0 mi East 6.9 mph - N/A   Clear
9:15 PM 46.4 °F 42.4 °F 39.2 °F 76% 29.80 in 10.0 mi East 8.1 mph - N/A   Clear
9:35 PM 46.4 °F 43.5 °F 39.2 °F 76% 29.80 in 10.0 mi East 5.8 mph - N/A   Clear
9:55 PM 44.6 °F 41.4 °F 39.2 °F 81% 29.80 in 10.0 mi NW 5.8 mph - N/A   Scattered Clouds
10:15 PM 42.8 °F - 39.2 °F 87% 29.80 in 10.0 mi Calm Calm - N/A   Scattered Clouds
10:35 PM 42.8 °F 41.1 °F 39.2 °F 87% 29.80 in 10.0 mi ENE 3.5 mph - N/A   Scattered Clouds
10:55 PM 41.0 °F 39.0 °F 37.4 °F 87% 29.79 in 10.0 mi SSW 3.5 mph - N/A   Mostly Cloudy
11:15 PM 41.0 °F - 37.4 °F 87% 29.80 in 10.0 mi Calm Calm - N/A   Mostly Cloudy
11:35 PM 41.0 °F 39.0 °F 37.4 °F 87% 29.80 in 10.0 mi North 3.5 mph - N/A   Mostly Cloudy
11:55 PM 42.8 °F - 37.4 °F 81% 29.79 in 10.0 mi Calm Calm - N/A   Mostly Cloudy